Tracking 17844 objects as of 24-August-2016
HD Live streaming from Space Station
objects crossing your sky now

NAVSTAR 30 (USA 88)

Track NAVSTAR 30 (USA 88) now!
NAVSTAR 30 (USA 88) is classified as:


NORAD ID: 22446
Int'l Code: 1993-007A
Perigee: 21,299.3 km
Apogee: 21,420.4 km
Inclination: 55.5 °
Period: 766.0 minutes
Semi major axis: 27730 km
RCS: 2.5118 m2 (large)
Launch date: February 3, 1993
Source: United States (US)
Launch site: AIR FORCE EASTERN TEST RANGE (AFETR)
PRN:
Your satellite tracking list
Your tracking list is empty





NASA's NSSDC Master Catalog

Two Line Element Set (TLE):
1 22446U 93007A   16236.29447190 -.00000067  00000-0  00000+0 0  9994
2 22446  55.4721  10.2245 0021837 329.1930  79.0467  1.88091738166625
Source of the keplerian elements: AFSPC

N2YO: 476